When you browse on this site, cookies collect data to enhance your experience and personalize the content and advertising you see.
Visit our Privacy Policy to learn more. By continuing to use the site, you agree to this use of cookies and data.
  • In Hungary
  • List of Countries
  • For 7 days
  • Water Temperature
  • Weather Map
  • News
  • Weather Widgets
  • user-avatar
    Login

    Hourly Weather Jaroszowka

    Today, 20 September, Friday

    Time Temperature Precipitation Wind Pressure Humidity
    00:00 +5°C° 0 mm 4 mps 751 mmHg 93%
    01:00 +5°C° 0 mm 4 mps 751 mmHg 93%
    02:00 +4°C° 0 mm 4 mps 752 mmHg 94%
    03:00 +4°C° 0 mm 4 mps 752 mmHg 94%
    04:00 +4°C° 0 mm 4 mps 752 mmHg 94%
    05:00 +3°C° 0 mm 3 mps 752 mmHg 94%
    06:00 +4°C° 0 mm 4 mps 752 mmHg 90%
    07:00 +5°C° 0 mm 4 mps 752 mmHg 85%
    08:00 +5°C° 0 mm 4 mps 752 mmHg 81%
    09:00 +7°C° 0 mm 5 mps 752 mmHg 71%
    10:00 +8°C° 0 mm 5 mps 753 mmHg 61%
    11:00 +10°C° 0 mm 5 mps 753 mmHg 51%
    12:00 +10°C° 0 mm 5 mps 753 mmHg 49%
    13:00 +12°C° 0 mm 5 mps 752 mmHg 47%
    14:00 +12°C° 0 mm 5 mps 752 mmHg 45%
    15:00 +12°C° 0 mm 4 mps 752 mmHg 47%
    16:00 +12°C° 0 mm 3 mps 752 mmHg 49%
    17:00 +11°C° 0 mm 3 mps 752 mmHg 51%
    18:00 +10°C° 0 mm 2 mps 752 mmHg 57%
    19:00 +9°C° 0 mm 2 mps 752 mmHg 63%
    20:00 +8°C° 0 mm 1 mps 752 mmHg 69%
    21:00 +8°C° 0 mm 1 mps 752 mmHg 72%
    22:00 +8°C° 0 mm 1 mps 752 mmHg 75%
    23:00 +6°C° 0 mm 2 mps 752 mmHg 77%

    Tomorrow, 21 September, Saturday

    Time Temperature Precipitation Wind Pressure Humidity
    00:00 +7°C° 0 mm 2 mps 752 mmHg 77%
    01:00 +7°C° 0 mm 2 mps 752 mmHg 76%
    02:00 +8°C° 0 mm 3 mps 751 mmHg 76%
    03:00 +8°C° 0.1 mm 3 mps 751 mmHg 80%
    04:00 +8°C° 0.1 mm 3 mps 751 mmHg 85%
    05:00 +7°C° 0.1 mm 4 mps 750 mmHg 89%
    06:00 +8°C° 0.2 mm 4 mps 750 mmHg 91%
    07:00 +10°C° 0.2 mm 4 mps 750 mmHg 92%
    08:00 +10°C° 0.2 mm 5 mps 750 mmHg 93%
    09:00 +10°C° 0 mm 5 mps 750 mmHg 92%
    10:00 +12°C° 0 mm 5 mps 750 mmHg 91%
    11:00 +12°C° 0 mm 5 mps 750 mmHg 90%
    12:00 +13°C° 0 mm 5 mps 750 mmHg 88%
    13:00 +13°C° 0 mm 5 mps 750 mmHg 86%
    14:00 +13°C° 0 mm 5 mps 750 mmHg 84%
    15:00 +13°C° 0 mm 5 mps 750 mmHg 83%
    16:00 +13°C° 0 mm 5 mps 750 mmHg 82%
    17:00 +13°C° 0 mm 4 mps 750 mmHg 81%
    18:00 +13°C° 0 mm 4 mps 750 mmHg 83%
    19:00 +12°C° 0 mm 4 mps 750 mmHg 84%
    20:00 +12°C° 0 mm 4 mps 750 mmHg 86%
    21:00 +11°C° 0 mm 4 mps 750 mmHg 89%
    22:00 +11°C° 0 mm 4 mps 750 mmHg 91%
    23:00 +10°C° 0 mm 3 mps 750 mmHg 94%

    Day after tomorrow, 22 September, Sunday

    Time Temperature Precipitation Wind Pressure Humidity
    00:00 +9°C° 0 mm 3 mps 750 mmHg 95%
    01:00 +9°C° 0 mm 3 mps 750 mmHg 96%
    02:00 +9°C° 0 mm 3 mps 750 mmHg 97%
    03:00 +9°C° 0 mm 3 mps 750 mmHg 97%
    04:00 +8°C° 0 mm 3 mps 750 mmHg 97%
    05:00 +8°C° 0 mm 3 mps 750 mmHg 97%
    06:00 +9°C° 0 mm 3 mps 750 mmHg 94%
    07:00 +9°C° 0 mm 3 mps 750 mmHg 92%
    08:00 +10°C° 0 mm 3 mps 750 mmHg 89%
    09:00 +12°C° 0 mm 3 mps 750 mmHg 82%
    10:00 +14°C° 0 mm 3 mps 750 mmHg 74%
    11:00 +17°C° 0 mm 4 mps 750 mmHg 66%
    12:00 +18°C° 0 mm 4 mps 749 mmHg 63%
    13:00 +19°C° 0 mm 4 mps 749 mmHg 60%
    14:00 +20°C° 0 mm 4 mps 749 mmHg 56%
    15:00 +20°C° 0 mm 3 mps 749 mmHg 58%
    16:00 +20°C° 0 mm 3 mps 748 mmHg 61%
    17:00 +20°C° 0 mm 2 mps 748 mmHg 63%
    18:00 +18°C° 0 mm 2 mps 748 mmHg 70%
    19:00 +16°C° 0 mm 1 mps 748 mmHg 77%
    20:00 +14°C° 0 mm 1 mps 748 mmHg 84%
    21:00 +13°C° 0 mm 1 mps 748 mmHg 86%
    22:00 +13°C° 0 mm 1 mps 748 mmHg 87%
    23:00 +12°C° 0 mm 1 mps 748 mmHg 89%

    23 September, Monday

    Time Temperature Precipitation Wind Pressure Humidity
    00:00 +12°C° 0 mm 2 mps 748 mmHg 90%
    01:00 +12°C° 0 mm 2 mps 749 mmHg 91%
    02:00 +11°C° 0 mm 3 mps 749 mmHg 92%
    03:00 +10°C° 0 mm 3 mps 749 mmHg 91%
    04:00 +10°C° 0 mm 3 mps 748 mmHg 91%
    05:00 +10°C° 0 mm 3 mps 748 mmHg 90%
    06:00 +10°C° 0 mm 3 mps 748 mmHg 88%
    07:00 +10°C° 0 mm 4 mps 748 mmHg 87%
    08:00 +11°C° 0 mm 4 mps 748 mmHg 85%
    09:00 +12°C° 0 mm 4 mps 748 mmHg 79%
    10:00 +14°C° 0 mm 4 mps 748 mmHg 74%
    11:00 +17°C° 0 mm 4 mps 748 mmHg 69%
    12:00 +18°C° 0 mm 4 mps 747 mmHg 66%
    13:00 +18°C° 0 mm 4 mps 747 mmHg 64%
    14:00 +19°C° 0 mm 4 mps 747 mmHg 61%
    15:00 +19°C° 0 mm 4 mps 746 mmHg 63%
    16:00 +19°C° 0 mm 4 mps 746 mmHg 65%
    17:00 +18°C° 0 mm 3 mps 746 mmHg 67%
    18:00 +17°C° 0 mm 4 mps 746 mmHg 74%
    19:00 +14°C° 0 mm 4 mps 746 mmHg 80%
    20:00 +12°C° 0 mm 4 mps 746 mmHg 87%
    21:00 +11°C° 0 mm 4 mps 746 mmHg 88%
    22:00 +11°C° 0 mm 3 mps 746 mmHg 88%
    23:00 +10°C° 0 mm 3 mps 746 mmHg 89%

    24 September, Tuesday

    Time Temperature Precipitation Wind Pressure Humidity
    00:00 +9°C° 0 mm 3 mps 746 mmHg 90%
    01:00 +9°C° 0 mm 3 mps 746 mmHg 91%
    02:00 +8°C° 0 mm 2 mps 746 mmHg 92%
    03:00 +8°C° 0 mm 2 mps 745 mmHg 93%
    04:00 +8°C° 0 mm 2 mps 745 mmHg 93%
    05:00 +7°C° 0 mm 2 mps 745 mmHg 94%
    06:00 +8°C° 0 mm 2 mps 745 mmHg 91%
    07:00 +8°C° 0 mm 2 mps 745 mmHg 88%
    08:00 +9°C° 0 mm 2 mps 745 mmHg 85%
    09:00 +11°C° 0 mm 3 mps 746 mmHg 78%
    10:00 +13°C° 0 mm 3 mps 746 mmHg 72%
    11:00 +16°C° 0 mm 3 mps 746 mmHg 65%
    12:00 +17°C° 0 mm 3 mps 746 mmHg 62%
    13:00 +17°C° 0 mm 3 mps 746 mmHg 60%
    14:00 +18°C° 0 mm 3 mps 746 mmHg 57%
    15:00 +18°C° 0 mm 3 mps 746 mmHg 59%
    16:00 +17°C° 0 mm 3 mps 746 mmHg 61%
    17:00 +17°C° 0 mm 3 mps 746 mmHg 63%
    18:00 +14°C° 0 mm 3 mps 746 mmHg 67%
    19:00 +12°C° 0 mm 4 mps 746 mmHg 72%
    20:00 +10°C° 0 mm 4 mps 746 mmHg 76%
    21:00 +10°C° 0 mm 4 mps 746 mmHg 77%
    22:00 +9°C° 0 mm 3 mps 746 mmHg 78%
    23:00 +8°C° 0 mm 3 mps 746 mmHg 79%

    25 September, Wednesday

    Time Temperature Precipitation Wind Pressure Humidity
    00:00 +8°C° 0 mm 3 mps 746 mmHg 79%
    01:00 +8°C° 0 mm 3 mps 746 mmHg 78%
    02:00 +8°C° 0 mm 3 mps 746 mmHg 77%
    03:00 +8°C° 0 mm 3 mps 745 mmHg 76%
    04:00 +9°C° 0 mm 3 mps 745 mmHg 75%
    05:00 +9°C° 0 mm 3 mps 745 mmHg 73%
    06:00 +8°C° 0 mm 4 mps 745 mmHg 73%
    07:00 +8°C° 0 mm 4 mps 744 mmHg 72%
    08:00 +10°C° 0 mm 4 mps 744 mmHg 72%
    09:00 +10°C° 0 mm 4 mps 744 mmHg 74%
    10:00 +10°C° 0 mm 4 mps 744 mmHg 77%
    11:00 +10°C° 0 mm 4 mps 744 mmHg 80%
    12:00 +11°C° 0 mm 4 mps 743 mmHg 79%
    13:00 +12°C° 0 mm 4 mps 743 mmHg 79%
    14:00 +14°C° 0 mm 4 mps 743 mmHg 79%
    15:00 +14°C° 0.1 mm 4 mps 742 mmHg 79%
    16:00 +14°C° 0.1 mm 4 mps 742 mmHg 79%
    17:00 +15°C° 0.1 mm 4 mps 742 mmHg 80%
    18:00 +14°C° 0.2 mm 3 mps 742 mmHg 84%
    19:00 +14°C° 0.2 mm 3 mps 742 mmHg 88%
    20:00 +13°C° 0.2 mm 3 mps 741 mmHg 93%
    21:00 +13°C° 0 mm 3 mps 741 mmHg 94%
    22:00 +14°C° 0 mm 2 mps 741 mmHg 94%
    23:00 +14°C° 0 mm 2 mps 741 mmHg 95%
    Show more